STARLINK-11685, 63552

Orbit data source: Space-Track

STARLINK-11685, 63552 is a payload satellite owned by SpaceX/Seattle (US) in LEO that was launched on Sun, 13 Apr 2025 UTC via an FALCON 9 launch vehicle from the Air Force Eastern Test Range (AFETR). Payload-class satellites include a variety of spacecraft equipped with specific instruments for various scientific and technological missions. These include communications satellites like Starlink; space stations such as the ISS; scientific satellites like the Hubble; Earth observation satellites from companies like Planet Labs, Umbra, and HawkEye 360; GPS; miniature CubeSats for education and research; and military/defense satellites.

Loading next visibility...
Identifier
63552, 2025-075E
Orbit
LEO
Country
Flag of USUS
Related business
Manufacturer
SpaceX/Seattle
Mission
Operational Commercial Communications
Bus & Motor
STARLINK V2MD, Unknown motor
Mass
960 kg wet, ~910 kg dry
Launch date (UTC)
2025-04-13 (1 year ago)
Launch vehicle
FALCON 9
Launch site
Air Force Eastern Test Range (AFETR)
Object type
Payload
Rocket body
Debris
Shape & HBR
Box + 2 Pan, 18.1 m
Radar Cross Section
36.964 m², Large (>1 m²)

Expand to show TLE details & history
Last TLE update: 2 days ago

TLE from 2 days ago
0 STARLINK-11685
1 63552U 25075E   26170.30740872  .00142584  00000-0  10947-2 0  9994
2 63552  42.9998 260.9981 0003853 290.9143  69.1312 15.70855431 69237
Epoch: 2026-06-19T07:22Z
TLE epoch observation values (Epoch: 2026-06-19T07:22:40.113Z)
Latitude
-0.00002°
Longitude
-117.20732°
Altitude
355.299 km
Speed
7.698 km/s
True Right ascension
17h 23m 59s
True Declination
0° 00' 00"
Sunlit
Object was in full shadow at epoch
Visualization orbit readout
Latitude
Unknown
Longitude
Unknown
Altitude
Unknown
Speed
Unknown
Apparent Right ascension
Unknown
Apparent Declination
Unknown
Sunlit
N/A
Visualization observer readout
Local Sidereal Time
07:20:56
Azimuth
Unknown
Elevation
Unknown
Doppler factor
Unknown
Orbital elements
Apogee altitude
361.028 km
Perigee altitude
355.837 km
Semi-major axis
6,736.57 km
Eccentricity
0.00039
Inclination
42.9998°
RAAN
260.9981°
Arg. of periapsis
290.9143°
True anomaly
69.17246°
Mean anomaly
69.1312°
Eccentric anomaly
69.15183°
Mean motion
3.92541 °/min
Orbital period
91.71 mins
BSTAR
0.0010947
Loading maneuver chart data...
Computing Atmospheric mass density...
Loading historical data...
Loading historical data...
Loading historical data...
Loading historical data...
Loading historical data...
Loading historical data...
Loading historical data...

Documentation

Showing up to 5 results
|